Tracking 20748 objects as of 4-Jun-2020
HD Live streaming from Space Station
objects crossing your sky now
Track the most recent launched group of Starlink satellites

ONEWEB-0069

Track ONEWEB-0069 now!
10-day predictions
ONEWEB-0069 is classified as:


NORAD ID: 45430
Int'l Code: 2020-020G
Perigee: 584.1 km
Apogee: 625.6 km
Inclination: 87.6 °
Period: 96.6 minutes
Semi major axis: 6975 km
RCS: Unknown
Launch date: March 21, 2020
Source: United Kingdom (UK)
Launch site: TYURATAM MISSILE AND SPACE COMPLEX (TTMTR)
aabbcc
Your satellite tracking list
Your tracking list is empty




NASA's NSSDC Master Catalog

Two Line Element Set (TLE):
1 45430U 20020G   20156.00001157 -.00039680  00000-0 -41049-2 0  9996
2 45430  87.5686 114.0954 0029718  30.4414 240.0183 14.90080611 11252
Source of the keplerian elements: AFSPC